When you browse on this site, cookies collect data to enhance your experience and personalize the content and advertising you see.
Visit our Privacy Policy to learn more. By continuing to use the site, you agree to this use of cookies and data.
  • In Hungary
  • List of Countries
  • For 7 days
  • Water Temperature
  • Satellite Maps
  • Weather Map
  • News
  • Weather Widgets
  • user-avatar
    Login

    Hourly Weather Szczukowice

    Today, 21 May, Tuesday

    Time Temperature Precipitation Wind Pressure Humidity
    00:00 +14°C° 0 mm 2 mps 732 mmHg 94%
    01:00 +14°C° 0 mm 2 mps 731 mmHg 96%
    02:00 +13°C° 0 mm 2 mps 731 mmHg 96%
    03:00 +13°C° 0 mm 1 mps 731 mmHg 95%
    04:00 +13°C° 0 mm 1 mps 731 mmHg 95%
    05:00 +13°C° 0 mm 1 mps 731 mmHg 92%
    06:00 +14°C° 0 mm 1 mps 731 mmHg 89%
    07:00 +15°C° 0 mm 1 mps 731 mmHg 86%
    08:00 +16°C° 0.1 mm 1 mps 731 mmHg 83%
    09:00 +17°C° 0.1 mm 2 mps 731 mmHg 79%
    10:00 +18°C° 0.1 mm 2 mps 730 mmHg 76%
    11:00 +18°C° 1 mm 2 mps 730 mmHg 80%
    12:00 +18°C° 1 mm 3 mps 730 mmHg 84%
    13:00 +17°C° 1 mm 3 mps 730 mmHg 87%
    14:00 +18°C° 1.7 mm 3 mps 730 mmHg 85%
    15:00 +18°C° 1.7 mm 3 mps 729 mmHg 83%
    16:00 +19°C° 1.7 mm 3 mps 729 mmHg 81%
    17:00 +18°C° 2.1 mm 3 mps 729 mmHg 84%
    18:00 +17°C° 2.1 mm 3 mps 729 mmHg 88%
    19:00 +16°C° 2.1 mm 2 mps 729 mmHg 91%
    20:00 +15°C° 0.2 mm 2 mps 729 mmHg 93%
    21:00 +14°C° 0.2 mm 2 mps 729 mmHg 95%
    22:00 +13°C° 0.2 mm 2 mps 729 mmHg 97%
    23:00 +13°C° 0.1 mm 2 mps 729 mmHg 97%

    Tomorrow, 22 May, Wednesday

    Time Temperature Precipitation Wind Pressure Humidity
    00:00 +13°C° 0.1 mm 2 mps 729 mmHg 97%
    01:00 +14°C° 0.1 mm 2 mps 729 mmHg 97%
    02:00 +13°C° 0.1 mm 1 mps 729 mmHg 98%
    03:00 +13°C° 0.1 mm 1 mps 729 mmHg 98%
    04:00 +13°C° 0.1 mm 1 mps 729 mmHg 98%
    05:00 +14°C° 0.1 mm 1 mps 729 mmHg 96%
    06:00 +14°C° 0.1 mm 1 mps 729 mmHg 93%
    07:00 +15°C° 0.1 mm 1 mps 730 mmHg 91%
    08:00 +15°C° 0.4 mm 2 mps 730 mmHg 89%
    09:00 +16°C° 0.4 mm 2 mps 730 mmHg 88%
    10:00 +16°C° 0.4 mm 3 mps 730 mmHg 86%
    11:00 +17°C° 0.7 mm 3 mps 730 mmHg 84%
    12:00 +18°C° 0.7 mm 3 mps 731 mmHg 82%
    13:00 +18°C° 0.7 mm 4 mps 731 mmHg 80%
    14:00 +18°C° 0.7 mm 3 mps 731 mmHg 79%
    15:00 +19°C° 0.7 mm 3 mps 731 mmHg 78%
    16:00 +19°C° 0.7 mm 2 mps 731 mmHg 77%
    17:00 +18°C° 0.6 mm 2 mps 731 mmHg 82%
    18:00 +17°C° 0.6 mm 2 mps 731 mmHg 86%
    19:00 +16°C° 0.6 mm 2 mps 731 mmHg 91%
    20:00 +15°C° 0.8 mm 2 mps 732 mmHg 93%
    21:00 +15°C° 0.8 mm 2 mps 732 mmHg 95%
    22:00 +14°C° 0.8 mm 2 mps 732 mmHg 97%
    23:00 +14°C° 1.1 mm 2 mps 732 mmHg 97%

    Day after tomorrow, 23 May, Thursday

    Time Temperature Precipitation Wind Pressure Humidity
    00:00 +14°C° 1.1 mm 2 mps 733 mmHg 98%
    01:00 +12°C° 1.1 mm 3 mps 733 mmHg 98%
    02:00 +13°C° 0.2 mm 3 mps 733 mmHg 98%
    03:00 +13°C° 0.2 mm 3 mps 733 mmHg 97%
    04:00 +13°C° 0.2 mm 4 mps 734 mmHg 97%
    05:00 +13°C° 0.1 mm 4 mps 734 mmHg 96%
    06:00 +14°C° 0.1 mm 4 mps 735 mmHg 95%
    07:00 +14°C° 0.1 mm 4 mps 735 mmHg 95%
    08:00 +15°C° 0.3 mm 4 mps 735 mmHg 93%
    09:00 +15°C° 0.3 mm 5 mps 736 mmHg 91%
    10:00 +16°C° 0.3 mm 5 mps 736 mmHg 89%
    11:00 +16°C° 0.6 mm 5 mps 736 mmHg 89%
    12:00 +16°C° 0.6 mm 6 mps 736 mmHg 90%
    13:00 +15°C° 0.6 mm 6 mps 737 mmHg 91%
    14:00 +15°C° 0.2 mm 6 mps 737 mmHg 91%
    15:00 +14°C° 0.2 mm 6 mps 737 mmHg 92%
    16:00 +14°C° 0.2 mm 6 mps 737 mmHg 93%
    17:00 +13°C° 0.2 mm 6 mps 737 mmHg 93%
    18:00 +13°C° 0.2 mm 6 mps 737 mmHg 93%
    19:00 +13°C° 0.2 mm 6 mps 737 mmHg 93%
    20:00 +13°C° 0.2 mm 5 mps 738 mmHg 92%
    21:00 +12°C° 0.2 mm 5 mps 738 mmHg 91%
    22:00 +12°C° 0.2 mm 5 mps 738 mmHg 90%
    23:00 +12°C° 0.1 mm 5 mps 738 mmHg 89%

    24 May, Friday

    Time Temperature Precipitation Wind Pressure Humidity
    00:00 +10°C° 0.1 mm 5 mps 738 mmHg 89%
    01:00 +11°C° 0.1 mm 4 mps 738 mmHg 88%
    02:00 +11°C° 0 mm 4 mps 738 mmHg 87%
    03:00 +10°C° 0 mm 4 mps 738 mmHg 86%
    04:00 +9°C° 0 mm 3 mps 738 mmHg 84%
    05:00 +10°C° 0 mm 4 mps 738 mmHg 83%
    06:00 +10°C° 0 mm 4 mps 738 mmHg 82%
    07:00 +10°C° 0 mm 4 mps 738 mmHg 81%
    08:00 +12°C° 0 mm 4 mps 738 mmHg 74%
    09:00 +14°C° 0 mm 4 mps 738 mmHg 67%
    10:00 +16°C° 0 mm 5 mps 738 mmHg 61%
    11:00 +17°C° 0 mm 5 mps 738 mmHg 58%
    12:00 +17°C° 0 mm 5 mps 738 mmHg 56%
    13:00 +19°C° 0 mm 5 mps 738 mmHg 54%
    14:00 +19°C° 0 mm 5 mps 737 mmHg 54%
    15:00 +19°C° 0 mm 4 mps 737 mmHg 55%
    16:00 +19°C° 0 mm 4 mps 737 mmHg 56%
    17:00 +17°C° 0 mm 4 mps 737 mmHg 63%
    18:00 +16°C° 0 mm 3 mps 737 mmHg 69%
    19:00 +15°C° 0 mm 2 mps 736 mmHg 76%
    20:00 +14°C° 0 mm 2 mps 737 mmHg 80%
    21:00 +13°C° 0 mm 2 mps 737 mmHg 84%
    22:00 +12°C° 0 mm 2 mps 737 mmHg 88%
    23:00 +12°C° 0 mm 2 mps 737 mmHg 89%

    25 May, Saturday

    Time Temperature Precipitation Wind Pressure Humidity
    00:00 +12°C° 0 mm 2 mps 737 mmHg 90%
    01:00 +10°C° 0 mm 2 mps 737 mmHg 91%
    02:00 +10°C° 0 mm 2 mps 737 mmHg 91%
    03:00 +10°C° 0 mm 2 mps 736 mmHg 90%
    04:00 +9°C° 0 mm 3 mps 736 mmHg 90%
    05:00 +11°C° 0 mm 3 mps 736 mmHg 84%
    06:00 +13°C° 0 mm 3 mps 736 mmHg 79%
    07:00 +15°C° 0 mm 4 mps 737 mmHg 73%
    08:00 +17°C° 0.2 mm 4 mps 737 mmHg 70%
    09:00 +18°C° 0.2 mm 4 mps 737 mmHg 67%
    10:00 +19°C° 0.2 mm 5 mps 737 mmHg 64%
    11:00 +19°C° 0.2 mm 5 mps 736 mmHg 64%
    12:00 +19°C° 0.2 mm 5 mps 736 mmHg 64%
    13:00 +19°C° 0.2 mm 5 mps 736 mmHg 63%
    14:00 +19°C° 0 mm 5 mps 736 mmHg 61%
    15:00 +20°C° 0 mm 5 mps 736 mmHg 58%
    16:00 +20°C° 0 mm 5 mps 736 mmHg 56%
    17:00 +19°C° 0 mm 4 mps 736 mmHg 62%
    18:00 +17°C° 0 mm 3 mps 736 mmHg 68%
    19:00 +16°C° 0 mm 2 mps 736 mmHg 75%
    20:00 +14°C° 0 mm 2 mps 736 mmHg 80%
    21:00 +13°C° 0 mm 1 mps 737 mmHg 85%
    22:00 +11°C° 0 mm 1 mps 737 mmHg 89%
    23:00 +11°C° 0 mm 1 mps 737 mmHg 90%

    26 May, Sunday

    Time Temperature Precipitation Wind Pressure Humidity
    00:00 +10°C° 0 mm 1 mps 737 mmHg 91%
    01:00 +10°C° 0 mm 1 mps 737 mmHg 92%
    02:00 +10°C° 0 mm 1 mps 736 mmHg 92%
    03:00 +10°C° 0 mm 1 mps 736 mmHg 93%
    04:00 +9°C° 0 mm 2 mps 736 mmHg 94%
    05:00 +10°C° 0 mm 3 mps 736 mmHg 87%
    06:00 +12°C° 0 mm 4 mps 736 mmHg 79%
    07:00 +13°C° 0 mm 5 mps 736 mmHg 71%
    08:00 +13°C° 0 mm 5 mps 736 mmHg 70%
    09:00 +14°C° 0 mm 6 mps 736 mmHg 69%
    10:00 +14°C° 0 mm 6 mps 736 mmHg 67%
    11:00 +15°C° 0 mm 6 mps 736 mmHg 63%
    12:00 +16°C° 0 mm 7 mps 736 mmHg 58%
    13:00 +17°C° 0 mm 7 mps 735 mmHg 54%
    14:00 +17°C° 0 mm 6 mps 735 mmHg 55%
    15:00 +17°C° 0 mm 6 mps 735 mmHg 56%
    16:00 +16°C° 0 mm 6 mps 735 mmHg 58%
    17:00 +15°C° 0 mm 5 mps 735 mmHg 65%
    18:00 +14°C° 0 mm 5 mps 735 mmHg 72%
    19:00 +13°C° 0 mm 4 mps 735 mmHg 79%
    20:00 +12°C° 0.3 mm 4 mps 736 mmHg 83%
    21:00 +12°C° 0.3 mm 4 mps 736 mmHg 87%
    22:00 +11°C° 0.3 mm 4 mps 736 mmHg 91%
    23:00 +10°C° 0 mm 4 mps 737 mmHg 92%
    Show more